Location: Newark
(23.3970°S, 47.6010°W)
Time: 18:09:07
(UTC+00:00)

deb Explorer IX - Pass Details

Date: 19 February 2020
Orbit: 547 x 1100 km, 38.8° (Epoch: 02 April)

Event Time Altitude Azimuth Distance (km) Brightness Sun altitude
Rises 00:38:54 0° 317° (NW) 3,579 ? -36.6°
Enters shadow 00:39:26 - 318° (NW) 3,399 ? -36.7°
Reaches altitude 10° 00:41:26 10° 321° (NW) 2,711 - -37.0°
Maximum altitude 00:47:59 58° 38° (NE) 1,210 - -38.2°
Drops below altitude 10° 00:55:08 10° 115° (ESE) 2,956 - -39.5°
Sets 00:57:59 0° 119° (ESE) 3,924 - -40.0°
